Aeroporto :
LOGIN :

Iscrizione | Disclaimer

   EN    FR    IT 

 










Sommario :    VFR   VFR Marginale   IFR   IFR Intensivo   IFR Molto Intensivo
Visibilità : 
Base nubi : 
>= 8 km
>= 3000ft
5 / 8 km
1000 / 3000 ft
1500m / 5 km
500 / 1000 ft
800 / 1500m
200 / 500 ft
< 800m
< 200 ft
Simboli :   Temporali  Nebbia  Neve Forte  Precipitazioni Forti  Vento > 20 kt
SIGMETs :   Varie  Temporali  Ghiacco  Turbolenza  Onda orograficha  Ceneri Vulcaniche






- Altitudine del aeroporto : 675 ft
- Codice IATA : RZE


EPRZ - Rzeszow-Jasionka

ULTIMO METAR :
  • 031930Z 10013KT CAVOK M01/M03 Q1011

METARs OBSOLETI :
  • 031900Z 10013KT CAVOK M01/M03 Q1012
  • 031830Z 11012KT CAVOK M01/M03 Q1012
  • 031800Z 10014KT CAVOK M01/M03 Q1012
  • 031730Z 11012KT CAVOK M02/M03 Q1012
  • 031700Z 11010KT CAVOK M02/M04 Q1012

TAF TAF EPRZ
Valido dal 03 a 18 ore il 04 a 18 ore UTC


031730Z 0318/0418 11010KT CAVOK
PROB40
TEMPO 0415/0418 BKN006



MetMap, La meteo Aeronautica in un colpo d'occhio ! - Copyright ORBIFLY Dicembre 2007 - Disclaimer

ORBIFLY MET'MAP TEAM :

Programmazione e sviluppo : Alexandra Zaïnal
Concezione : Baudouin d'Aumeries
Aiuto per la programmazione : Marc-Olivier Méhu
Supporto tecnico e logistico : Manuel Goepfert
Aiuto per la traduzione : Arnaldo La Scala

Contatto : metmap@orbifly.com




FONTI E CREDITI :

   NOAA